Location: Cannifist
(18.2333°N, 63.0167°W)
Time: 08:43:01
(UTC+00:00)

Envisat - Pass Details

Date: 26 June 2021
Orbit: 764 x 766 km, 98.2° (Epoch: 28 July)

Event Time Altitude Azimuth Distance (km) Brightness Sun altitude
Rises 08:50:16 0° 24° (NNE) 3,223 7.2 -11.0°
Reaches altitude 10° 08:52:43 10° 32° (NNE) 2,295 6.5 -10.5°
Maximum altitude 08:57:24 38° 100° (E) 1,143 4.4 -9.5°
Drops below altitude 10° 09:02:05 10° 168° (SSE) 2,290 5.3 -8.6°
Sets 09:04:31 0° 176° (S) 3,214 6.0 -8.0°
